Voltar ao catálogo

CZ-4C DEB

AtivoLEO
NORAD 43421·DEBRIS·🇨🇳 China

Lançado Dec 10, 2014 de Jiuquan Satellite Launch Center

Loading…

Próximas Passagens (próximas 24 horas)

TLE

ObsoletoSource: Space-Track

Época: Aug 29, 2026, 23:26 UTC

1 43421U 14080K   26241.97647771  .00000079  00000-0  18536-3 0  9992
2 43421  63.3849 140.1666 0384120  11.5494 349.4040 13.44801834499108

Acompanhe CZ-4C DEB em tempo real com AllMySat

Download on the App Store